www.pogodaiklimat.ru

Погода и климат >> Архив погоды >> Мексика >> Zamora


ПОГОДА в Zamora

  • Прогноз погоды в Zamora
  • Монитор погоды в Zamora
  • Климат города

АРХИВ ПОГОДЫ в Zamora

Время (UTC), дата Ветер
(напр.,м/с)
 
Видим.   Явления Облачность Т
(С)
Тd
(С)
f
(%)
Тe
(С)
Тes
(С)
Комфортность P
(гПа)
Po
(гПа)
Тmin
(С)
Tmax
(С)
R
(мм)
R24
(мм)
S
(см)
06 15.10 СЗ 1 10 км 8/8 1000 м
[Sc diur, vesp]
+17.6 +15.5 87 +19 +19 1009.5 845.3 +17.0 +28.6
09 15.10 СВ 10 км 8/8 600 м
[Sc diur, vesp]
+15.1 +14.4 96 1009.9 844.6
12 15.10 ЮВ 1 10 км {морось} 8/8 600 м
[Sc diur, vesp]
+15.6 +14.4 93 +16 +16 1010.3 844.0 0.2
15 15.10 СВ 1 18 км мгла {туман} 5/5 1200 м
[Sc diur, vesp]
+18.2 +17.0 93 +20 +22 1012.7 845.6
18 15.10 Ю 1 18 км мгла {туман} 6/6 1260 м
[Sc diur, vesp]
+26.2 +15.8 53 +29 +37 жарко 1010.9 844.9 +14.6 +26.4
21 15.10 В 1 20 км 6/6 1440 м
[Sc diur, vesp]
+25.4 +15.5 54 +28 +34 жарко 1006.0 842.1
00 16.10 З 1 18 км слабая морось {дождь} 8/8 1000 м
[Sc diur, vesp]
+22.4 +19.1 82 +28 +28 душно 1004.9 842.2 5
03 16.10 Ю 2 10 км 9/9 1440 м
[Sc diur, vesp]
+19.2 +16.9 87 +22 +22 комфорт 1006.6 844.0
06 16.10 СЗ 2 10 км 9/9 1440 м
[Sc diur, vesp]
+17.6 +15.8 89 +18 +18 1007.2 843.7 +31.4
09 16.10 ЮЗ 2 10 км слабая морось {дождь} 9/9 1440 м
[Sc diur, vesp]
+17.4 +16.5 94 +18 +18 1009.3 844.2 2
12 16.10 Ю 2 10 км {дождь, морось} 9/9 1000 м
[Sc diur, vesp]
+16.4 +15.5 94 +16 +16 1010.0 844.0 2
15 16.10 ЮВ 1 18 км 5/5 540 м
[Cu med, cong]
+19.8 +16.6 82 +23 +26 комфорт 1011.3 844.8
18 16.10 Ю 2 20 км 5/5 540 м
[Cu med, cong]
+27.2 +18.8 60 +32 +40 очень
душно
1009.3 844.1 +16.0 +28.8
21 16.10 СЗ 1 20 км 8/8 600 м
[Cu med, cong]
+25.0 +17.3 62 +29 +31 душно 1005.9 842.3
00 17.10 З 1 20 км 9/9 1000 м
[Sc]
+24.6 +16.5 61 +28 +28 душно 1004.1 841.8 +16.0 +29.8
03 17.10 З 1 10 км 8/8 1000 м
[Sc diur, vesp]
+19.4 +17.1 87 +23 +23 комфорт 1006.8 844.3
06 17.10 З 1 10 км 3/3 1000 м
[Sc diur, vesp]
+17.6 +16.4 93 +19 +19 1009.7 845.9 +29.8
09 17.10 В 1 10 км 3/3 1000 м
[Sc diur, vesp]
+15.4 +14.5 94 +16 +16 1010.3 845.1
12 17.10 ЮЗ 1 10 км 3/3 1000 м
[Sc diur, vesp]
+14.8 +13.9 94 +15 +15 1012.0 845.3 +14.4 +29.8
15 17.10 Ю 2 18 км мгла {туман} 1/1 600 м
[Cu med, cong]
+22.0 +10.2 47 +24 +27 комфорт 1015.1 847.7
18 17.10 СВ 2 18 км 4/4 660 м
[Cu med, cong]
+25.4 +14.5 51 +28 +37 жарко 1012.3 846.2 +14.0 +25.6
21 17.10 В 2 20 км 5/5 600 м
[Cu med, cong]
+26.8 +14.8 48 +29 +35 жарко 1007.6 843.5
00 18.10 В 3 18 км 4/4 1000 м
[Sc diur, vesp Ci sp]
+23.0 +14.4 58 +27 +27 душно 1005.8 843.2 +14.0 +28.0
03 18.10 В 2 10 км 8/8 1200 м
[Sc diur, vesp]
+21.2 +15.0 68 +24 +24 комфорт 1008.3 845.6
06 18.10 ЮВ 4 10 км 9/9 1000 м
[Sc diur, vesp]
+19.4 +14.0 71 +21 +21 комфорт 1009.9 846.4 +14.0 +28.0
09 18.10 В 1 10 км 9/9 1200 м
[Sc diur, vesp]
+17.6 +14.0 79 +19 +19 1010.4 845.8
12 18.10 В 2 10 км 6/6 1200 м
[Sc diur, vesp]
+17.2 +15.1 87 +18 +18 1011.9 846.1 +17.0 +28.0
15 18.10 В 2 19 км 6/6 1000 м
[Sc diur, vesp]
+19.4 +14.0 71 +22 +23 комфорт 1014.3 847.8
18 18.10 В 2 19 км 8/8 1080 м
[Sc diur, vesp]
+23.8 +14.3 55 +26 +29 жарко 1013.1 847.1 +17.0 +25.2
21 18.10 Ю 2 20 км 5/5 1440 м
[Sc diur, vesp]
+26.4 +14.3 47 +29 +34 жарко 1008.4 844.1
00 19.10 СВ 2 18 км 8/8 1000 м
[Sc diur, vesp]
+23.2 +14.6 58 +27 +27 душно 1005.5 842.5 +17.0 +29.0
03 19.10 ЮВ 2 10 км 9/9 1020 м
[Sc diur, vesp]
+22.4 +13.2 56 +25 +25 комфорт 1009.5 846.0
06 19.10 В 1 10 км 9/9 1200 м
[Sc diur, vesp]
+20.0 +15.2 74 +23 +23 комфорт 1010.7 847.1 +29.0
09 19.10 В 2 10 км 8/8 1200 м
[Sc diur, vesp]
+17.8 +14.6 82 +18 +18 1010.8 846.4
12 19.10 СВ 1 10 км 8/8 1200 м
[Sc diur, vesp]
+17.0 +14.2 84 +18 +18 1011.1 845.8 +16.6 +29.0
15 19.10 СВ 2 18 км мгла 5/5 1000 м
[Sc diur, vesp]
+20.2 +14.5 70 +23 +25 комфорт 1013.6 847.4
18 19.10 ЮВ 2 18 км мгла 6/6 600 м
[Cu hum]
+26.6 +14.2 46 +29 +35 жарко 1012.6 847.1 +16.6 +26.4
21 19.10 СЗ 1 18 км мгла 6/6 700 м
[Sc diur, vesp]
+27.6 +13.7 42 +29 +35 жарко 1008.1 844.5
00 20.10 ЮЗ 1 18 км мгла 9/5 600 м
[Sc diur, vesp Ci]
+25.8 +15.7 54 +29 +29 душно 1005.7 843.5 +16.6 +28.4
03 20.10 В 1 10 км 5/5 900 м
[Sc diur, vesp]
+20.6 +16.5 77 +25 +25 комфорт 1007.1 845.2
06 20.10 В 1 10 км 4/4 600 м
[Sc diur, vesp]
+19.6 +16.1 80 +23 +23 комфорт 1009.1 846.3 +16.6 +28.4
09 20.10 СВ 1 10 км 4/4 900 м
[Sc diur, vesp]
+18.6 +15.6 83 +21 +21 комфорт 1009.6 845.6
12 20.10 В 3 10 км 4/4 900 м
[Sc diur, vesp]
+18.4 +15.1 81 +19 +19 1010.5 845.5 +17.8 +28.4
15 20.10 ЮВ 2 18 км мгла {туман} 5/5 1200 м
[Sc diur, vesp]
+20.6 +13.6 64 +24 +26 комфорт 1012.3 846.5
21 20.10 СВ 2 18 км мгла {туман} 8/8 1050 м
[Sc diur, vesp]
+26.8 +15.5 50 +30 +32 душно 1006.4 843.3
00 21.10 В 1 17 км {дождь, морось} 8/8 1000 м
[Sc diur, vesp]
+18.4 +18.1 98 +20 +20 1007.2 844.0 12
03 21.10 Ю 1 10 км слабая морось {дождь} 10/10 1200 м
[Sc diur, vesp]
+17.4 +16.8 96 +18 +18 1010.4 846.5 13
06 21.10 СЗ 1 10 км {дождь, морось} 10/10 1000 м
[Sc diur, vesp]
+17.4 +17.1 98 +18 +18 1012.2 847.1 14
09 21.10 В 1 10 км 9/9 1200 м
[Sc diur, vesp]
+17.0 +15.8 93 +18 +18 1011.5 845.7
12 21.10 В 1 10 км {дождь, морось} 9/9 1000 м
[Sc diur, vesp]
+17.2 +15.4 89 +18 +18 1013.0 846.2 1
15 21.10 В 1 15 км 8/8 1000 м
[Sc diur, vesp]
+20.2 +14.5 70 +24 +25 комфорт 1014.4 847.4
18 21.10 СВ 3 10 км 10/10 1080 м
[Sc diur, vesp]
+24.4 +14.3 53 +27 +27 жарко 1011.8 845.9 +16.4 +25.6
21 21.10 ЮЗ 1 20 км {морось} 10/10 1200 м
[Sc diur, vesp]
+21.4 +17.7 79 +26 +26 душно 1008.3 843.7 3
00 22.10 З 1 18 км {дождь, морось} 10/10 1000 м
[Sc diur, vesp]
+20.2 +17.9 87 +25 +25 комфорт 1008.3 844.1 9
03 22.10 В 2 10 км {дождь, морось} 10/10 1200 м
[Sc diur, vesp]
+18.4 +16.5 89 +20 +20 1010.2 845.7 2

 

Местоположение метеостанции Zamora (Мексика): широта 19.98 долгота -102.30 высота над уровнем моря 1562 м.

В архиве по умолчанию представлена погода в Zamora за последнюю неделю. Архивные данные за месяц целиком и за предыдущие месяцы, начиная с января 2011 года, Вы можете получить, выбрав интересующий диапазон дат из раскрывающегося списка и нажав кнопку "Ввод!".


*Определитесь, кто Вы:
робот инопланетянин человек

Внимание! Время в таблицах - всемирное. Для получения местного времени необходимо прибавить поправку, которая в Zamora равна -6 ч.

Смотрите также архив погоды в соседних городах и на ближайших метеорологических станциях:

Погода в Ciudad Guzman (Мексика) (119 км)
Погода в Morelia (Мексика) (129 км)
Погода в Guadalajara (Мексика) (129 км)
Погода в Colima (Мексика) (148 км)
Погода в Lagos De Moreno (Мексика) (157 км)
Погода в Guanajuato (Мексика) (161 км)
Погода в Queretaro (Мексика) (209 км)
Погода в Aguascalientes (Мексика) (210 км)
Погода в Manzanillo (Мексика) (234 км)
Погода в Colotlan (Мексика) (256 км)

Пояснения к столбцам:

Ветер - указаны скорость ветра в м/с - средняя за 10 мин, порывы в срок и между сроками (в фигурных скобках) и направление, откуда дует ветер: С - северный, СВ - северо-восточный, В - восточный, ЮВ - юго-восточный, Ю - южный, ЮЗ - юго-западный, З - западный, СЗ - северо-западный.
Видимость - горизонтальная дальность видимости в метрах или километрах. При видимости от 1 до 10 км при отсутствии осадков обычно наблюдается дымка, при ухудшении видимости до 1 км и менее - туман. В сухую погоду видимость может ухудшаться дымом, пылью или мглою.
Явления - указаны атмосферные явления, наблюдавшиеся в срок или в последний час перед сроком; фигурными скобками обозначены явления, наблюдавшиеся между сроками (за 1-3 часа до срока); квадратными скобками обозначены град или гололедные отложения с указанием их диаметра в мм.
Облачность - указаны через наклонную черту общая и нижняя облачность в баллах и высота нижней границы облаков в метрах; квадратными скобками обозначены формы облаков: Ci - перистые, Cs - перисто-слоистые, Cc - перисто-кучевые, Ac - высококучевые, As - высокослоистые, Sc - слоисто-кучевые, Ns - слоисто-дождевые, Cu - кучевые, Cb - кучево-дождевые. Подробнее классификацию облаков см. в Атласе облаков (PDF).
T - Температура воздуха - температура, измеренная на высоте 2 м над землей.
Td - Температура точки росы - температура, при понижении до которой содержащийся в воздухе водяной пар достигнет насыщения.
f - Относительная влажность воздуха - влажноcть воздуха, измеренная на высоте 2 м над землей.
Te - Эффективная температура - температура, которую ощущает одетый по сезону человек в тени. Характеристика душности погоды. При расчете учитывается влияние влажности воздуха и скорости ветра на теплоощущения человека.
Tes - Эффективная температура на солнце - температура, которую ощущает человек, с поправкой на солнечный нагрев. Характеристика знойности погоды. Зависит от высоты солнца над горизонтом, облачности и скорости ветра. Ночью, в пасмурную погоду, а также при ветре 12 м/с и более поправка равна нулю.
P - Атмосферное давление - приведенное к уровню моря атмосферное давление.
Po - Атмосферное давление - измеренное на уровне метеостанции атмосферное давление.
Tmin - Минимальная температура - минимум температуры воздуха на высоте 2 м над землей.
Tmax - Максимальная температура - максимум температуры воздуха на высоте 2 м над землей.
R - Количество осадков - Количество выпавших осадков за период времени, мм. При наведении курсора мыши на число - период времени, за который выпало указанное количество осадков.
R24 - Количество осадков - Количество выпавших осадков за 24 часа, мм.
S - Снежный покров - Высота снежного покрова, см. При наведении курсора мыши на число - состояние снежного покрова и степень покрытия местности в баллах.